This is the latest recevied weather packets stored in our database for station/object KC9DK. If no packets are shown the sender has not sent any weather packets the latest 1 day(s).
| Time | Temp. | Humidity | Pressure | Rain* | Wind** | Luminosity | Snow |
|---|---|---|---|---|---|---|---|
| 1778055009 | 7.22° C | 94% | 1011.1 hPa | 0 mm | - | 0 W/m² | - |
| 1778054101 | 7.22° C | 94% | 1011.2 hPa | 0 mm | - | 0 W/m² | - |
| 1778053192 | 7.22° C | 94% | 1010.3 hPa | 0 mm | - | 0 W/m² | - |
| 1778052284 | 7.22° C | 94% | 1009.4 hPa | 0 mm | - | 0 W/m² | - |
| 1778051982 | 7.22° C | 95% | 1009.7 hPa | 0 mm | - | 0 W/m² | - |
| 1778051376 | 7.78° C | 96% | 1010.2 hPa | 0 mm | - | 0 W/m² | - |
| 1778051073 | 7.78° C | 96% | 1010.8 hPa | 0 mm | - | 0 W/m² | - |
| 1778050770 | 7.78° C | 96% | 1010.9 hPa | 0 mm | - | 0 W/m² | - |
| 1778050468 | 7.78° C | 96% | 1010.8 hPa | 0 mm | - | 0 W/m² | - |
| 1778050164 | 7.78° C | 96% | 1011.1 hPa | 1.78 mm | - | 0 W/m² | - |
| 1778049860 | 7.78° C | 96% | 1011 hPa | 1.78 mm | - | 0 W/m² | - |
| 1778049557 | 7.78° C | 96% | 1011 hPa | 0 mm | - | 0 W/m² | - |
| 1778049255 | 8.33° C | 97% | 1011 hPa | 0 mm | - | 0 W/m² | - |
| 1778047439 | 9.44° C | 97% | 1010.5 hPa | 3.05 mm | - | 0 W/m² | - |
| 1778047135 | 9.44° C | 97% | 1011.3 hPa | 1.78 mm | - | 0 W/m² | - |
| 1778046832 | 9.44° C | 97% | 1011.5 hPa | 0 mm | - | 0 W/m² | - |
| 1778046226 | 8.89° C | 97% | 1010.6 hPa | 0 mm | - | 0 W/m² | - |
| 1778045621 | 8.89° C | 97% | 1010.1 hPa | 0 mm | - | 0 W/m² | - |
| 1778045319 | 8.89° C | 97% | 1010.3 hPa | 0 mm | - | 0 W/m² | - |
| 1778044411 | 8.89° C | 97% | 1010.2 hPa | 1.27 mm | - | 0 W/m² | - |
| 1778044108 | 8.89° C | 97% | 1010.3 hPa | 0 mm | - | 0 W/m² | - |
| 1778043502 | 8.89° C | 97% | 1010.1 hPa | 0 mm | - | 0 W/m² | - |
| 1778043199 | 8.89° C | 97% | 1010 hPa | 0 mm | - | 0 W/m² | - |
| 1778042896 | 8.89° C | 97% | 1010.3 hPa | 1.78 mm | - | 0 W/m² | - |
| 1778042594 | 8.89° C | 97% | 1010.1 hPa | 4.83 mm | - | 0 W/m² | - |
* Rain latest hour (hover to see other rain measurements)
** Current wind speed in m/s (hover to see current wind gust speed)